This demonstration page uses our WeatherBlox Daily Observations layout. Learn more.

Hourly Observations for December 5, 2017

Temp ( °F °C ) Dew Point ( °F °C ) Humidity (%) Winds ( mph kmh ) Pressure ( in mb ) Visibility ( mi km ) Precip ( " mm )
12:53 am 00:53 Cloudy 58 14.4 48 8.9 70 70 S 8 13 29.87 1012 10 16.0934 0 0
1:53 am 01:53 Cloudy with Light Rain 59 15 48 8.9 67 67 SSW 14 22 29.85 1011 9 14.48406 0.01 0.254
2:53 am 02:53 Cloudy 58 14.4 49 9.4 72 72 VRB 7 11 29.84 1011 10 16.0934 0.02 0.508
3:23 am 03:23 Cloudy with Nearby Thunderstorms 55 12.8 51 10.6 87 87 SW 8 13 29.88 1012 3 4.82802 0.05 1.27
3:38 am 03:38 Cloudy with Rain 55 12.8 51 10.6 87 87 SSW 9 15 29.91 1013 4 6.43736 0.09 2.286
3:53 am 03:53 Cloudy with Rain 54 12.2 52 11.1 93 93 SW 8 13 29.89 1012 5 8.0467 0.12 3.048
4:17 am 04:17 Cloudy with Light Rain 54 12.2 52 11.1 93 93 SW 6 9 29.94 1014 4 6.43736 0.05 1.27
4:53 am 04:53 Cloudy with Light Rain 54 12.2 53 11.7 97 97 SW 8 13 29.88 1012 4 6.43736 0.1 2.54
5:32 am 05:32 Cloudy with Rain 54 12.2 53 11.7 97 97 SSW 8 13 29.88 1012 3 4.82802 0.08 2.032
5:53 am 05:53 Cloudy with Light Rain 55 12.8 54 12.2 96 96 SSW 7 11 29.88 1012 5 8.0467 0.1 2.54
6:53 am 06:53 Cloudy 56 13.3 55 12.8 97 97 SW 10 17 29.89 1012 10 16.0934 0.01 0.254
7:19 am 07:19 Cloudy with Light Rain 56 13.3 55 12.8 97 97 SW 7 11 29.91 1013 7 11.26538 0 0.0254
7:53 am 07:53 Cloudy with Light Rain 50 10 48 8.9 93 93 WNW 9 15 29.92 1013 8 12.87472 0.01 0.254
8:53 am 08:53 Cloudy 49 9.4 45 7.2 86 86 WNW 9 15 29.95 1014 10 16.0934 0 0.0254
9:16 am 09:16 Cloudy 47 8.3 41 5 80 80 WNW 13 20 29.97 1015 10 16.0934 0 0
9:23 am 09:23 Cloudy 47 8.3 41 5 80 80 W 9 15 30 1016 10 16.0934 0 0
9:53 am 09:53 Cloudy 45 7.2 36 2.2 71 71 W 13 20 30 1016 10 16.0934 0 0
10:53 am 10:53 Mostly Cloudy 44 6.7 34 1.1 68 68 WNW 13 20 30.02 1017 10 16.0934 0 0
11:07 am 11:07 Partly Cloudy 44 6.7 34 1.1 68 68 W 9 15 30.06 1018 10 16.0934 0 0
11:53 am 11:53 Sunny 44 6.7 35 1.7 71 71 W 14 22 30.02 1017 10 16.0934 0 0
12:53 pm 12:53 Sunny 44 6.7 35 1.7 71 71 W 13 20 29.99 1016 10 16.0934 0 0
1:53 pm 13:53 Mostly Sunny 43 6.1 33 0.6 68 68 W 13 20 30 1016 10 16.0934 0 0
2:53 pm 14:53 Cloudy 40 4.4 29 -1.7 65 65 W 14 22 30.04 1017 10 16.0934 0 0
3:53 pm 15:53 Partly Cloudy 39 3.9 28 -2.2 65 65 W 12 19 30.06 1018 10 16.0934 0 0
4:53 pm 16:53 Sunny 38 3.3 19 -7.2 46 46 W 8 13 30.07 1018 10 16.0934 0 0
5:53 pm 17:53 Clear 36 2.2 19 -7.2 50 50 W 7 11 30.09 1019 10 16.0934 0 0
6:53 pm 18:53 Clear 35 1.7 20 -6.7 54 54 W 10 17 30.11 1020 10 16.0934 0 0
7:53 pm 19:53 Clear 34 1.1 20 -6.7 56 56 WSW 7 11 30.14 1021 10 16.0934 0 0
8:53 pm 20:53 Clear 32 0 21 -6.1 64 64 Calm 30.15 1021 10 16.0934 0 0
9:53 pm 21:53 Clear 32 0 21 -6.1 64 64 SW 6 9 30.16 1021 10 16.0934 0 0
10:53 pm 22:53 Clear 31 -0.6 22 -5.6 69 69 WSW 7 11 30.18 1022 10 16.0934 0 0
11:53 pm 23:53 Clear 31 -0.6 22 -5.6 69 69 WSW 6 9 30.18 1022 10 16.0934 0 0

Powered by AerisWeather